STARLINK-34428

Last updated on Thu Jul 03 2025 00:02:06 GMT+0000 (Coordinated Universal Time)

1 64293U 25123C 25183.58335648 .00061076 00000+0 98952-3 0 9993 2 64293 69.9999 120.1116 0003496 267.1446 300.9042 15.52471900 4962
UTC large
Height (km)
Speed (km/s)
/
Latitude / Longitude
Inclination (degrees)
Orbital Period (minutes)
Azimuth
Elevation
Range (km)
Doppler Factor

Next 0 passes for location: London (51.5072 / 0.1276)

Sorry there are no passes over London.